Youngstown, OH

12:07 PM EDT on July 24, 2017 (GMT -0400)
Youngstown-Warren Regional

Weather History for KYNG - January, 2014

Change the Weather History Date:

Thursday, January 30, 2014

  Actual Average Record
Temperature  
Mean Temperature 19 °F 26 °F  
Max Temperature 31 °F 33 °F 64 °F (2013)
Min Temperature 6 °F 19 °F -8 °F (1965)
Degree Days  
Heating Degree Days 46 39  
Month to date heating degree days 1362 1176  
Since 1 July heating degree days 3806 3582  
Cooling Degree Days 0 0  
Month to date cooling degree days 0 0  
Year to date cooling degree days 0 0  
Moisture  
Dew Point -1 °F    
Average Humidity 45    
Maximum Humidity 63    
Minimum Humidity 27    
Precipitation  
Precipitation 0.00 in 0.07 in 0.88 in (1982)
Month to date precipitation 2.41 2.47  
Year to date precipitation 2.41 2.47  
Snow  
Snow 0.00 in 0.50 in - ()
Month to date snowfall 22.8 16.1  
Since 1 July snowfall 57.4 35.5  
Snow Depth 4.00 in    
Sea Level Pressure  
Sea Level Pressure 30.17 in    
Wind  
Wind Speed 11 mph (South)    
Max Wind Speed 21 mph    
Max Gust Speed 30 mph    
Visibility 10 miles    
Events      
T = Trace of Precipitation, MM = Missing Value Source: NWS Daily Summary

Daily Weather History Graph

Daily Weather History Graph

Search for Another Location

Airport or City:

Trip Planner

Search our weather history database for the weather conditions in past years. The results will help you decide how hot, cold, wet, or windy it might be!

Date:

Astronomy

Jan. 30, 2014 Rise Set
Actual Time 7:35 AM EST 5:36 PM EST
Civil Twilight 7:06 AM EST 6:06 PM EST
Nautical Twilight 6:33 AM EST 6:39 PM EST
Astronomical Twilight 6:00 AM EST 7:11 PM EST
Moon 7:00 AM EST (1/30) 5:47 PM EST (1/30)
Length of Visible Light 10h 59m
Length of Day
10h 00m
Waning Crescent, 0% of the Moon is Illuminated
Jan 30
Waning Crescent
Jan 30
New
Feb 6
First Quarter
Feb 14
Full
Feb 22
Last Quarter

Hourly Weather History & Observations

Time (EST) Temp. Windchill Dew Point Humidity Pressure Visibility Wind Dir Wind Speed Gust Speed Precip Events Conditions
12:51 AM 10.0 °F -1.9 °F -2.9 °F 56% 30.31 in 10.0 mi SSW 8.1 mph - N/A   Clear
1:51 AM 8.1 °F -4.3 °F -2.9 °F 61% 30.30 in 10.0 mi South 8.1 mph - N/A   Clear
2:51 AM 8.1 °F -4.3 °F -4.0 °F 58% 30.30 in 10.0 mi South 8.1 mph - N/A   Clear
3:51 AM 7.0 °F -4.5 °F -4.0 °F 61% 30.30 in 10.0 mi South 6.9 mph - N/A   Clear
4:51 AM 7.0 °F -4.5 °F -4.0 °F 61% 30.29 in 10.0 mi South 6.9 mph - N/A   Clear
5:51 AM 7.0 °F -3.3 °F -4.0 °F 61% 30.31 in 10.0 mi South 5.8 mph - N/A   Clear
6:51 AM 6.1 °F -6.8 °F -4.0 °F 63% 30.31 in 10.0 mi South 8.1 mph - N/A   Clear
7:51 AM 7.0 °F -6.6 °F -4.0 °F 61% 30.32 in 10.0 mi South 9.2 mph - N/A   Partly Cloudy
8:51 AM 10.0 °F -5.2 °F -4.0 °F 53% 30.31 in 10.0 mi South 12.7 mph - N/A   Partly Cloudy
9:51 AM 12.9 °F -1.6 °F -2.9 °F 49% 30.30 in 10.0 mi South 12.7 mph 20.7 mph N/A   Partly Cloudy
10:51 AM 16.0 °F 3.6 °F -2.0 °F 45% 30.28 in 10.0 mi South 10.4 mph 18.4 mph N/A   Partly Cloudy
11:51 AM 19.0 °F 6.1 °F -2.0 °F 40% 30.27 in 10.0 mi South 12.7 mph 20.7 mph N/A   Partly Cloudy
12:51 PM 21.0 °F 8.1 °F -2.0 °F 36% 30.17 in 10.0 mi South 13.8 mph 23.0 mph N/A   Mostly Cloudy
1:51 PM 23.0 °F 11.1 °F -0.9 °F 35% 30.14 in 10.0 mi South 12.7 mph 18.4 mph N/A   Overcast
2:51 PM 25.0 °F 13.6 °F -0.9 °F 33% 30.10 in 10.0 mi SSE 12.7 mph 20.7 mph N/A   Overcast
3:51 PM 25.0 °F 13.1 °F -0.0 °F 34% 30.07 in 10.0 mi SSE 13.8 mph - N/A   Overcast
4:51 PM 26.1 °F 15.0 °F -0.9 °F 31% 30.04 in 10.0 mi South 12.7 mph - N/A   Overcast
5:51 PM 26.1 °F 15.6 °F 1.9 °F 35% 29.99 in 10.0 mi SSE 11.5 mph 18.4 mph N/A   Overcast
6:51 PM 27.0 °F 15.2 °F 1.0 °F 33% 29.98 in 10.0 mi SSE 15.0 mph 23.0 mph N/A   Overcast
7:51 PM 28.0 °F 15.3 °F 1.0 °F 31% 29.96 in 10.0 mi South 18.4 mph 23.0 mph N/A   Overcast
8:51 PM 30.0 °F 18.7 °F -0.0 °F 28% 29.94 in 10.0 mi SSW 16.1 mph 23.0 mph N/A   Overcast
9:51 PM 30.0 °F 21.7 °F 1.9 °F 30% 29.96 in 10.0 mi SSW 9.2 mph - N/A   Overcast
10:51 PM 30.0 °F 21.1 °F 3.9 °F 33% 29.97 in 10.0 mi SSW 10.4 mph 17.3 mph N/A   Overcast
11:51 PM 30.0 °F 23.2 °F 3.9 °F 33% 29.97 in 10.0 mi SSW 6.9 mph - N/A   Overcast